This is the latest recevied weather packets stored in our database for station/object PA3CPS. If no packets are shown the sender has not sent any weather packets the latest 10 day(s).
| Time | Temp. | Humidity | Pressure | Rain* | Wind** | Luminosity | Snow |
|---|---|---|---|---|---|---|---|
| 1777198891 | 12.22° C | 60% | 1025.8 hPa | 0 mm | - | 726 W/m² | - |
| 1777198590 | 12.78° C | 61% | 1025.7 hPa | 0 mm | - | 552 W/m² | - |
| 1777198292 | 12.78° C | 62% | 1025.8 hPa | 0 mm | - | 650 W/m² | - |
| 1777197985 | 12.22° C | 59% | 1025.8 hPa | 0 mm | - | 889 W/m² | - |
| 1777197686 | 12.78° C | 63% | 1025.8 hPa | 0 mm | - | 830 W/m² | - |
| 1777197380 | 12.78° C | 63% | 1025.9 hPa | 0 mm | - | 814 W/m² | - |
| 1777197080 | 12.22° C | 64% | 1025.9 hPa | 0 mm | - | 798 W/m² | - |
| 1777196779 | 11.67° C | 62% | 1025.9 hPa | 0 mm | - | 701 W/m² | - |
| 1777196478 | 12.22° C | 64% | 1026.1 hPa | 0 mm | - | 654 W/m² | - |
| 1777196174 | 12.22° C | 64% | 1026.1 hPa | 0 mm | - | 661 W/m² | - |
| 1777195873 | 11.67° C | 65% | 1026.1 hPa | 0 mm | - | 738 W/m² | - |
| 1777195564 | 11.67° C | 63% | 1026.2 hPa | 0 mm | - | 626 W/m² | - |
| 1777195264 | 11.11° C | 63% | 1026.2 hPa | 0 mm | - | 575 W/m² | - |
| 1777194963 | 11.11° C | 63% | 1026.2 hPa | 0 mm | - | 584 W/m² | - |
| 1777194666 | 11.67° C | 63% | 1026.2 hPa | 0 mm | - | 666 W/m² | - |
| 1777194362 | 11.67° C | 66% | 1026.1 hPa | 0 mm | - | 715 W/m² | - |
| 1777194062 | 11.67° C | 65% | 1026.1 hPa | 0 mm | - | 638 W/m² | - |
| 1777193763 | 11.11° C | 68% | 1026 hPa | 0 mm | - | 714 W/m² | - |
| 1777193463 | 10.56° C | 64% | 1025.9 hPa | 0 mm | - | 691 W/m² | - |
| 1777193162 | 11.11° C | 64% | 1025.9 hPa | 0 mm | - | 626 W/m² | - |
| 1777192863 | 10.56° C | 65% | 1026 hPa | 0 mm | - | 666 W/m² | - |
| 1777192564 | 10.56° C | 67% | 1026 hPa | 0 mm | - | 647 W/m² | - |
| 1777192262 | 10.56° C | 68% | 1026 hPa | 0 mm | - | 636 W/m² | - |
| 1777191963 | 10.56° C | 67% | 1026 hPa | 0 mm | - | 622 W/m² | - |
| 1777191663 | 10.56° C | 69% | 1025.8 hPa | 0 mm | - | 603 W/m² | - |
* Rain latest hour (hover to see other rain measurements)
** Current wind speed in m/s (hover to see current wind gust speed)